Location: Laverne
(36.7100°N, 99.8930°W)
Time: 12:39:02
(UTC-06:00)

SL-08 R/B - Pass Details

Date: 19 October 2017
Orbit: 950 x 1018 km, 82.9° (Epoch: 24 November)

Event Time Altitude Azimuth Distance (km) Brightness Sun altitude
Rises 07:03:29 0° 350° (N) 3,643 7.3 -10.2°
Reaches altitude 10° 07:05:59 10° 348° (NNW) 2,700 6.7 -9.7°
Maximum altitude 07:12:06 68° 267° (W) 1,039 4.5 -8.5°
Drops below altitude 10° 07:18:17 10° 185° (S) 2,726 6.9 -7.3°
Sets 07:20:49 0° 183° (S) 3,681 7.6 -6.8°
